Miscellaneous Local Product
Issued by NWS Hastings, NE

Home | Current Version | Previous Version | Text Only | Print | Product List | Glossary Off
Versions: 1 2 3 4 5 6 7 8 9 10 11 12 13 14 15 16 17 18 19 20 21 22 23 24 25 26 27 28 29 30 31 32 33 34 35 36 37 38 39 40 41 42 43 44 45 46 47 48 49 50

000
AXUS43 KGID 032302
MISGRI

GID CWA HOURLY WEATHER ROUNDUP
NATIONAL WEATHER SERVICE HASTINGS NE
600 PM CDT THU SEP 03 2015

NOTE: "FAIR" INDICATES FEW OR NO CLOUDS BELOW 12,000 FEET WITH NO
SIGNIFICANT WEATHER AND/OR OBSTRUCTIONS TO VISIBILITY.

...SOUTH CENTRAL NEBRASKA...

CITY           SKY/WX    TMP DP  RH WIND       PRES   REMARKS
GRAND ISLAND   SUNNY     93  68  43 SE13      29.77F HX  97
HASTINGS       SUNNY     94  62  34 S12       29.77S HX  94
KEARNEY        SUNNY     93  64  38 SE15      29.75F HX  95
ORD            MOSUNNY   93  62  35 S16       29.75S HX  93
YORK           MOSUNNY   91  68  46 S14       29.78S HX  95
AURORA         MOSUNNY   92  65  40 S13G18    29.77F HX  94
LEXINGTON      PTSUNNY   93  60  32 SE8       29.75F HX  93
HOLDREGE       MOSUNNY   96  55  25 S18       29.75F HX  94
HEBRON         MOSUNNY   93  58  30 S14G24    29.78F HX  92

...NEBRASKA PANHANDLE...

CITY           SKY/WX    TMP DP  RH WIND       PRES   REMARKS
CHADRON        PTSUNNY   94  44  17 S20       29.75S HX  90
ALLIANCE       CLOUDY    84  50  30 SW7       29.84S
SCOTTSBLUFF    CLOUDY    83  48  29 S14       29.86S
SIDNEY         PTSUNNY   87  47  24 NW16      29.88F

...WESTERN AND NORTH CENTRAL NEBRASKA...

CITY           SKY/WX    TMP DP  RH WIND       PRES   REMARKS
VALENTINE      CLOUDY    95  53  24 SE13      29.74S HX  92
AINSWORTH      CLOUDY    90  61  37 S8        29.76S
ONEILL         PTSUNNY   87  70  56 SE12      29.76F HX  92
BROKEN BOW     SUNNY     92  61  35 S14G20    29.77F HX  92
IMPERIAL       CLOUDY    97  47  18 S6        29.77F HX  93
NORTH PLATTE   PTSUNNY   89  62  40 SE8       29.75F
MCCOOK         CLOUDY    95  54  25 S13       29.73S HX  93

...EASTERN NEBRASKA...

CITY           SKY/WX    TMP DP  RH WIND       PRES   REMARKS
NORFOLK        MOSUNNY   90  70  51 SE13G22   29.77S HX  95
SO SIOUX CITY  SUNNY     88  72  58 S12       29.78S HX  94
TEKAMAH        SUNNY     89  74  60 S8        29.78S HX  98
COLUMBUS       MOSUNNY   90  70  51 SE8       29.77S HX  95
ALBION         MOSUNNY   87  70  56 SE9       29.78F HX  92
OMAHA EPPLEY   MOSUNNY   92  71  50 S18G26    29.79F HX  98
OFFUTT AFB     SUNNY     89  71  54 SE15      29.79F HX  95
MILLARD        SUNNY     91  74  55 SE14G20   29.79S HX 100
LINCOLN        MOSUNNY   93  65  39 S18G28    29.78F HX  95
NEBRASKA CITY  SUNNY     90  63  40 SE14      29.82S HX  90
BEATRICE       SUNNY     91  67  44 S14G21    29.80F HX  94
FALLS CITY     SUNNY     90  69  50 S12       29.83S HX  94

...NORTHERN KANSAS...

CITY           SKY/WX    TMP DP  RH WIND       PRES   REMARKS
GOODLAND       CLOUDY    92  48  22 S15       29.80F
HILL CITY      PTSUNNY   96  57  27 S23G31    29.75S HX  95
NORTON         CLEAR     93  45  18 S20G26    29.73F
PHILLIPSBURG   SUNNY     99  54  22 SE17      29.74S HX  96
SMITH CENTER   SUNNY     95  57  28 S17G28    29.76F HX  94
HAYS           PTSUNNY   97  57  26 S30G36    29.77S HX  95
RUSSELL        PTSUNNY   96  58  27 S30G38    29.76F HX  95
CONCORDIA      MOSUNNY   91  62  37 S16G26    29.80S HX  91
SALINA         MOSUNNY   95  62  33 S18G29    29.80S HX  96
TOPEKA         SUNNY     91  65  41 S14       29.85S HX  93



USA.gov is the U.S. government's official web portal to all federal, state and local government web resources and services.